This is the latest recevied weather packets stored in our database for station/object HB9HFD-13. If no packets are shown the sender has not sent any weather packets the latest 10 day(s).
| Time | Temp. | Humidity | Pressure | Rain* | Wind** | Luminosity | Snow |
|---|---|---|---|---|---|---|---|
| 1787669929 | 27.22° C | 47% | 1010.8 hPa | 0 mm | - | - | - |
| 1787669629 | 27.22° C | 46% | 1010.9 hPa | 0 mm | - | - | - |
| 1787669329 | 27.78° C | 46% | 1010.9 hPa | 0 mm | - | - | - |
| 1787669028 | 27.78° C | 47% | 1010.8 hPa | 0 mm | - | - | - |
| 1787668728 | 27.22° C | 47% | 1010.8 hPa | 0 mm | - | - | - |
| 1787668428 | 27.78° C | 47% | 1010.8 hPa | 0 mm | - | - | - |
| 1787668128 | 27.22° C | 50% | 1010.9 hPa | 0 mm | - | - | - |
| 1787667827 | 27.22° C | 48% | 1010.8 hPa | 0 mm | - | - | - |
| 1787667527 | 27.22° C | 48% | 1010.9 hPa | 0 mm | - | - | - |
| 1787667227 | 27.22° C | 47% | 1010.8 hPa | 0 mm | - | - | - |
| 1787666926 | 26.67° C | 49% | 1010.9 hPa | 0 mm | - | - | - |
| 1787666626 | 26.67° C | 47% | 1010.9 hPa | 0 mm | - | - | - |
| 1787666326 | 27.22° C | 46% | 1011 hPa | 0 mm | - | - | - |
| 1787666026 | 27.22° C | 45% | 1010.8 hPa | 0 mm | - | - | - |
| 1787665725 | 27.78° C | 44% | 1010.9 hPa | 0 mm | - | - | - |
| 1787665425 | 28.33° C | 44% | 1010.8 hPa | 0 mm | - | - | - |
| 1787665125 | 28.89° C | 45% | 1010.8 hPa | 0 mm | - | - | - |
| 1787664825 | 29.44° C | 42% | 1010.8 hPa | 0 mm | - | - | - |
| 1787664524 | 30° C | 43% | 1010.8 hPa | 0 mm | - | - | - |
| 1787664224 | 30° C | 42% | 1010.8 hPa | 0 mm | - | - | - |
| 1787663924 | 30° C | 42% | 1010.8 hPa | 0 mm | - | - | - |
| 1787663623 | 29.44° C | 43% | 1010.9 hPa | 0 mm | - | - | - |
| 1787663323 | 29.44° C | 44% | 1010.9 hPa | 0 mm | - | - | - |
| 1787663023 | 30° C | 44% | 1010.9 hPa | 0 mm | - | - | - |
| 1787662723 | 30° C | 43% | 1010.8 hPa | 0 mm | - | - | - |
* Rain latest hour (hover to see other rain measurements)
** Current wind speed in m/s (hover to see current wind gust speed)